Las Vegas, NV

4:35 PM PDT on July 25, 2016 (GMT -0700)
McCarran International

Weather History for KLAS - December, 2012

Change the Weather History Date:

Sunday, December 23, 2012

  Actual Average (KLAS) Record (KLAS)
Temperature  
Mean Temperature 48 °F 47 °F  
Max Temperature 56 °F 56 °F 74 °F (1955)
Min Temperature 39 °F 38 °F 11 °F (1990)
Degree Days  
Heating Degree Days 17 18  
Month to date heating degree days 320 395  
Since 1 July heating degree days 505 704  
Cooling Degree Days 0 0  
Month to date cooling degree days 0 0  
Year to date cooling degree days 4032 3568  
Moisture  
Dew Point 29 °F    
Average Humidity 49    
Maximum Humidity 59    
Minimum Humidity 38    
Precipitation  
Precipitation 0.00 in 0.02 in 0.18 in (1939)
Month to date precipitation 0.49 0.34  
Year to date precipitation 5.31 4.03  
Snow  
Snow 0.00 in 0.00 in T in (2008)
Month to date snowfall 0.0 0.1  
Since 1 July snowfall T 0.1  
Snow Depth 0.00 in    
Sea Level Pressure  
Sea Level Pressure 30.00 in    
Wind  
Wind Speed 6 mph (SW)    
Max Wind Speed 20 mph    
Max Gust Speed 25 mph    
Visibility 10 miles    
Events      
T = Trace of Precipitation, MM = Missing Value Source: NWS Daily Summary

Daily Weather History Graph

Daily Weather History Graph

Search for Another Location

Airport or City:

Trip Planner

Search our weather history database for the weather conditions in past years. The results will help you decide how hot, cold, wet, or windy it might be!

Date:

Astronomy

Dec. 23, 2012 Rise Set
Actual Time 6:48 AM PST 4:31 PM PST
Civil Twilight 6:20 AM PST 4:59 PM PST
Nautical Twilight 5:47 AM PST 5:32 PM PST
Astronomical Twilight 5:16 AM PST 6:03 PM PST
Moon 1:21 PM PST (12/23) 2:39 AM PST (12/23)
Length of Visible Light 10h 39m
Length of Day
9h 42m
Waxing Gibbous, 82% of the Moon is Illuminated
Dec 23
Waxing Gibbous
Dec 28
Full
Jan 4
Last Quarter
Jan 11
New
Jan 18
First Quarter

Hourly Weather History & Observations

Time (PST) Temp. Windchill Dew Point Humidity Pressure Visibility Wind Dir Wind Speed Gust Speed Precip Events Conditions
12:56 AM 46.0 °F 42.5 °F 27.0 °F 47% 29.99 in 10.0 mi WSW 6.9 mph - N/A   Mostly Cloudy
1:56 AM 45.0 °F 41.8 °F 27.0 °F 49% 30.01 in 10.0 mi West 5.8 mph - N/A   Scattered Clouds
2:56 AM 43.0 °F 41.3 °F 26.1 °F 51% 30.03 in 10.0 mi SW 3.5 mph - N/A   Partly Cloudy
3:56 AM 43.0 °F 37.7 °F 27.0 °F 53% 30.03 in 10.0 mi SSW 9.2 mph - N/A   Partly Cloudy
4:56 AM 41.0 °F 34.3 °F 27.0 °F 57% 30.03 in 10.0 mi SSW 11.5 mph - N/A   Partly Cloudy
5:56 AM 39.0 °F 34.8 °F 27.0 °F 62% 30.06 in 10.0 mi West 5.8 mph - N/A   Partly Cloudy
6:56 AM 39.9 °F 36.7 °F 27.0 °F 60% 30.07 in 10.0 mi SW 4.6 mph - N/A   Clear
7:56 AM 42.1 °F 38.4 °F 28.0 °F 58% 30.08 in 10.0 mi WSW 5.8 mph - N/A   Partly Cloudy
8:56 AM 45.0 °F 42.6 °F 28.9 °F 53% 30.08 in 10.0 mi SSW 4.6 mph - N/A   Partly Cloudy
9:56 AM 48.9 °F - 28.9 °F 46% 30.08 in 10.0 mi ESE 3.5 mph - N/A   Scattered Clouds
10:56 AM 48.9 °F - 30.0 °F 48% 30.05 in 10.0 mi Calm Calm - N/A   Mostly Cloudy
11:56 AM 52.0 °F - 30.9 °F 45% 30.01 in 10.0 mi Calm Calm - N/A   Mostly Cloudy
12:56 PM 53.1 °F - 32.0 °F 45% 29.98 in 10.0 mi ESE 3.5 mph - N/A   Mostly Cloudy
1:56 PM 53.1 °F - 32.0 °F 45% 29.96 in 10.0 mi East 5.8 mph - N/A   Mostly Cloudy
2:56 PM 55.0 °F - 30.0 °F 38% 29.95 in 10.0 mi Calm Calm - N/A   Overcast
3:56 PM 55.9 °F - 30.0 °F 37% 29.94 in 10.0 mi South 15.0 mph - N/A   Mostly Cloudy
4:56 PM 52.0 °F - 30.9 °F 45% 29.95 in 10.0 mi WSW 9.2 mph - N/A   Mostly Cloudy
5:56 PM 54.0 °F - 30.9 °F 41% 29.96 in 10.0 mi SSW 9.2 mph - N/A   Scattered Clouds
6:56 PM 48.0 °F - 30.0 °F 50% 29.97 in 10.0 mi West 3.5 mph - N/A   Scattered Clouds
7:56 PM 46.9 °F - 30.0 °F 52% 29.97 in 10.0 mi WSW 8.1 mph - N/A   Scattered Clouds
8:56 PM 46.0 °F 43.9 °F 30.0 °F 54% 29.96 in 10.0 mi SW 4.6 mph - N/A   Mostly Cloudy
9:56 PM 44.1 °F 40.8 °F 30.0 °F 58% 29.96 in 10.0 mi SSW 5.8 mph - N/A   Mostly Cloudy
10:56 PM 44.1 °F 41.5 °F 30.0 °F 58% 29.94 in 10.0 mi South 4.6 mph - N/A   Scattered Clouds
11:56 PM 43.0 °F 39.5 °F 30.0 °F 60% 29.91 in 10.0 mi WSW 5.8 mph - N/A   Partly Cloudy